Location: Table Mountain
(47.2500°N, 120.5778°W)
Time: 01:44:51
(UTC-08:00)

Vanguard 2 Rocket - Visible Passes

Search period start: 25 February 2018 00:00
Search period end: 07 March 2018 00:00
Orbit: 555 x 3327 km, 32.9° (Epoch: 24 February)

Date Brightness Start Highest point End Pass type
(mag) Time Alt. Az. Time Alt. Az. Time Alt. Az.
25 Feb 10.6 01:06:10 19° SE 01:06:10 19° SE 01:10:15 10° ESE visible
25 Feb 10.1 03:12:00 32° S 03:12:00 32° S 03:24:31 10° SSE visible
25 Feb 10.5 05:17:50 13° WSW 05:22:40 14° SW 05:31:17 10° SSW visible
25 Feb 9.5 19:21:37 10° SSE 19:24:11 12° SE 19:24:11 12° SE visible
25 Feb 9.6 21:28:16 10° SW 21:30:01 17° SSW 21:30:01 17° SSW visible
26 Feb 10.3 02:16:13 26° SSE 02:16:13 26° SSE 02:24:19 10° SE visible
26 Feb 10.3 04:22:04 21° SW 04:22:10 21° SW 04:34:43 10° S visible
26 Feb 9.2 20:30:21 10° SSW 20:34:10 22° S 20:34:10 22° S visible
27 Feb 10.7 01:20:29 16° SE 01:20:29 16° SE 01:23:24 10° SE visible
27 Feb 10.3 03:26:20 24° SSW 03:26:20 24° SSW 03:36:12 10° SSE visible
27 Feb 9.2 19:33:15 10° S 19:38:14 18° SE 19:38:18 18° SE visible
27 Feb 9.5 21:42:04 10° SW 21:44:08 19° SW 21:44:08 19° SW visible
28 Feb 10.5 02:30:38 20° SSE 02:30:38 20° SSE 02:36:34 10° SSE visible
28 Feb 10.6 04:36:29 13° SW 04:36:29 13° SW 04:43:05 10° SSW visible
28 Feb 9.0 20:43:52 10° SSW 20:48:13 27° S 20:48:13 27° S visible
01 Mar 10.8 01:34:57 12° SE 01:34:57 12° SE 01:36:06 10° SE visible
01 Mar 10.5 03:40:48 16° SSW 03:40:48 16° SSW 03:46:35 10° S visible
01 Mar 8.9 19:46:10 10° SSW 19:51:44 22° SSE 19:52:15 22° SE visible
01 Mar 9.5 21:56:07 10° SW 21:58:05 19° SW 21:58:05 19° SW visible
02 Mar 10.7 02:45:08 14° S 02:45:08 14° S 02:47:56 10° SSE visible
02 Mar 9.1 18:49:27 10° S 18:52:50 14° SE 18:56:16 11° ESE visible
02 Mar 8.8 20:57:43 10° SW 21:02:05 29° SSW 21:02:05 29° SSW visible
03 Mar 8.7 19:59:42 10° SSW 20:05:26 26° SSE 20:06:04 26° SSE visible
03 Mar 9.6 22:10:21 10° WSW 22:11:53 17° SW 22:11:53 17° SW visible
04 Mar 8.8 19:02:12 10° S 19:06:26 18° SSE 19:10:00 14° ESE visible
04 Mar 8.8 21:11:49 10° SW 21:15:49 29° SSW 21:15:49 29° SSW visible
05 Mar 8.6 20:13:34 10° SW 20:19:19 29° SSE 20:19:44 29° SSE visible
05 Mar 9.7 22:24:45 10° WSW 22:25:33 13° WSW 22:25:33 13° WSW visible
06 Mar 8.6 19:15:41 10° SSW 19:20:13 22° SSE 19:23:38 17° SE visible
06 Mar 8.9 21:26:06 10° WSW 21:29:27 25° SW 21:29:27 25° SW visible
